Location: Esp�s Alto
(42.4476°N, 0.5876°E)
Time: 15:50:20
(UTC+00:00)

NOSS 3-4 (C) - Pass Details

Date: 22 October 2019
Orbit: 908 x 1304 km, 63.4° (Epoch: 10 November)

Event Time Altitude Azimuth Distance (km) Brightness Sun altitude
Exits shadow 03:42:59 81° 349° (N) 950 3.3 -29.2°
Drops below altitude 10° 03:49:06 10° 35° (NE) 2,738 6.4 -28.1°
Sets 03:51:46 0° 36° (NE) 3,740 7.2 -27.6°
